This is the latest recevied weather packets stored in our database for station/object K4AVM-13. If no packets are shown the sender has not sent any weather packets the latest 10 day(s).
| Time | Temp. | Humidity | Pressure | Rain* | Wind** | Luminosity | Snow |
|---|---|---|---|---|---|---|---|
| 1777761156 | 14.44° C | 46% | 1012.6 hPa | 0 mm | - | 67 W/m² | - |
| 1777760854 | 14.44° C | 48% | 1012.7 hPa | 0 mm | - | 59 W/m² | - |
| 1777760550 | 14.44° C | 47% | 1012.8 hPa | 0 mm | - | 59 W/m² | - |
| 1777760246 | 14.44° C | 44% | 1012.9 hPa | 0 mm | - | 69 W/m² | - |
| 1777759943 | 14.44° C | 45% | 1013 hPa | 0 mm | - | 67 W/m² | - |
| 1777759639 | 15° C | 45% | 1013.3 hPa | 0 mm | - | 81 W/m² | - |
| 1777759335 | 15° C | 45% | 1013.1 hPa | 0 mm | - | 83 W/m² | - |
| 1777759032 | 15° C | 44% | 1013.1 hPa | 0 mm | - | 87 W/m² | - |
| 1777758724 | 15° C | 44% | 1013.1 hPa | 0 mm | - | 111 W/m² | - |
| 1777758421 | 15° C | 46% | 1013.1 hPa | 0 mm | - | 117 W/m² | - |
| 1777758118 | 15° C | 46% | 1013.2 hPa | 0 mm | - | 107 W/m² | - |
| 1777757815 | 15° C | 44% | 1013 hPa | 0 mm | - | 87 W/m² | - |
| 1777757512 | 15° C | 45% | 1013 hPa | 0 mm | - | 94 W/m² | - |
| 1777757211 | 15° C | 44% | 1013.1 hPa | 0 mm | - | 107 W/m² | - |
| 1777756909 | 15.56° C | 44% | 1013 hPa | 0 mm | - | 103 W/m² | - |
| 1777756604 | 15.56° C | 46% | 1012.8 hPa | 0 mm | - | 98 W/m² | - |
| 1777756301 | 16.11° C | 42% | 1012.9 hPa | 0 mm | - | 136 W/m² | - |
| 1777755998 | 16.67° C | 41% | 1012.9 hPa | 0 mm | - | 176 W/m² | - |
| 1777755695 | 16.11° C | 43% | 1012.9 hPa | 0 mm | - | 269 W/m² | - |
| 1777755392 | 16.11° C | 43% | 1012.7 hPa | 0 mm | - | 287 W/m² | - |
| 1777755089 | 16.11° C | 44% | 1012.8 hPa | 0 mm | - | 241 W/m² | - |
| 1777754786 | 15° C | 45% | 1012.6 hPa | 0 mm | - | 290 W/m² | - |
| 1777754484 | 15.56° C | 44% | 1012.8 hPa | 0 mm | - | 139 W/m² | - |
| 1777754181 | 15.56° C | 45% | 1012.9 hPa | 0 mm | - | 125 W/m² | - |
| 1777753879 | 15.56° C | 43% | 1013 hPa | 0 mm | - | 187 W/m² | - |
* Rain latest hour (hover to see other rain measurements)
** Current wind speed in m/s (hover to see current wind gust speed)